シューメーカー第3彗星

155P/Shoemaker 3 (2002)

English version
Home page
Updated on September 29, 2004

---------------------------------------------------------------------

・ プロフィール

符号 155P/2002 R2
検出日 2002年9月9日, 9月12日
発見光度 18.0等, 18.6等
発見者 T. Oribe (Saji), A. Nakamura (Kuma)

・ 写真集

・ 軌道要素

Epoch 2003 Jan. 1.0 TT = JDT 2452640.5
T 2002 Dec. 14.88307 TT                                 MPC
q   1.8136046            (2000.0)            P               Q
n   0.05762238     Peri.   14.92931     -0.37628843     -0.91990894
a   6.6385811      Node    97.27277     +0.83824380     -0.38874899
e   0.7268084      Incl.    6.38642     +0.39465725     -0.05139816
P  17.10

・ 星図

・ 光度変化

        m1 = 7.5 + 5 logΔ + 27 log r(t - 28)

---------------------------------------------------------------------

軌道要素はM.P.E.C. 2002-R69に掲載されたものです。
星図は StellaNavigator Ver.2.0 for Windows (アストロアーツ 編著 / アスキー出版局刊) で作成したものです。
光度グラフはComet for Windowsで作成したものです。

---------------------------------------------------------------------

Copyright(C) Seiichi Yoshida (comet@aerith.net). All rights reserved.